Location: Castellare
(42.4669°N, 9.4728°E)
Time: 08:31:49
(UTC+00:00)

ATLAS CENTAUR R/B - Pass Details

Date: 17 February 2020
Orbit: 466 x 681 km, 64.7° (Epoch: 05 April)

Event Time Altitude Azimuth Distance (km) Brightness Sun altitude
Exits shadow 05:19:23 13° 303° (WNW) 1,853 3.5 -11.2°
Maximum altitude 05:20:45 14° 322° (NW) 1,753 3.5 -11.0°
Drops below altitude 10° 05:23:07 10° 354° (N) 1,974 4.0 -10.6°
Sets 05:26:22 0° 21° (NNE) 2,828 5.1 -10.0°
